Terug naar catalogus

THORAD DELTA 1 DEB

ActiefLEO
NORAD 8595·DEBRIS·🇺🇸 United States

Gelanceerd Nov 15, 1974 vanaf Vandenberg Space Force Base

Loading…

Volgende Passages (komende 24 uur)

TLE

VersSource: Space-Track

Epoch: Sep 14, 2026, 18:51 UTC

1 08595U 74089DJ  26257.78596612 -.00000018  00000-0  19900-3 0  9993
2 08595 101.4149  91.9432 0148803 287.5840  84.3065 12.25486006318399

Volg THORAD DELTA 1 DEB in realtime met AllMySat

Download on the App Store